[[{"header":{"parameterUnit":"m.s-1","parameterCategory":2,"la1":30.2992,"la2":30.254,"lo1":-89.0895,"lo2":-89.0443,"dy":0.0025,"dx":0.0025,"nx":19,"ny":19,"refTime":"2026-03-10T09:00:00:Z","depth":"0","parameterNumber":2,"parameterNumberName":"U-component_of_CURRENTS"},"data":[0,0,0,0.2514,0.2514,0.2469,0.2469,0.2466,0.2467,0,0,0,0,0,0,0,0,0,0,0,0.252,0.252,0.2514,0.2514,0.2469,0.2469,0.2466,0.2467,0,0,0,0,0,0,0,0,0,0,0,0.2519,0.252,0.2521,0.2515,0.247,0.2468,0.2466,0.2475,0,0,0,0,0,0,0,0,0,0,0.2507,0.2529,0.252,0.2521,0.2515,0.247,0.2468,0.2474,0.2474,0.2517,0,0.2536,0,0.253,0.2472,0.2472,0,0,0,0.2467,0.2528,0.2522,0.2521,0.2515,0.247,0.2476,0.2473,0.2474,0.2518,0.2536,0.2536,0.253,0.2473,0.2473,0.2707,0.2709,0,0,0.2469,0.25,0.2521,0.2523,0.254,0.2478,0.2476,0.2472,0.2488,0.2536,0.2535,0.253,0.2473,0.2474,0.2705,0.2707,0,0,0,0.2509,0.2503,0.2493,0.2523,0.2527,0.2478,0.2475,0.2486,0.2486,0.2535,0.253,0.2474,0.2475,0.2703,0.2706,0.2806,0,0,0,0.2508,0.2529,0.2495,0.2511,0.2528,0.2503,0.249,0.2485,0.2485,0.253,0.2474,0.2475,0.2701,0.2704,0.2798,0.2809,0,0,0,0.2515,0.2529,0.2535,0.2513,0.2516,0.2502,0.2498,0.2483,0.2485,0.2472,0.2476,0.2699,0.2704,0.2792,0.28,0.2909,0,0,0,0.2529,0.2583,0.2537,0.2605,0.2517,0.2572,0.2497,0.2539,0.2544,0.2474,0.2701,0.2706,0.279,0.2794,0.2903,0.288,0.2908,0,0,0.2605,0.2593,0.2634,0.2593,0.2671,0.2572,0.267,0.2647,0.263,0.2692,0.2696,0.2801,0.2799,0.2908,0.3148,0.3167,0,0,0,0.2664,0.2703,0.272,0.2753,0.2755,0.2759,0.2741,0.2761,0.2818,0.2663,0.2868,0.2864,0.2929,0.2904,0.2922,0.2716,0.2727,0.2727,0.2726,0.2827,0.2813,0.2885,0.2883,0.291,0.2918,0.2944,0.2975,0.2946,0.3023,0.2997,0.3212,0.3192,0.3203,0.2994,0.3073,0.3074,0.3074,0.3074,0.2955,0.2967,0.2987,0.3037,0.3036,0.3098,0.3141,0.3141,0.3249,0.3177,0.3236,0.3074,0.3227,0.2997,0.3082,0.308,0.308,0.3079,0.3078,0.3008,0.2997,0.3044,0.3096,0.3163,0.3174,0.3254,0.3291,0.3331,0.3391,0.3381,0.3377,0.3127,0.3439,0.344,0.344,0.3441,0.3441,0.3442,0.299,0.3036,0.3075,0.3144,0.3183,0.3237,0.3319,0.3383,0.3472,0.3487,0.3487,0.3195,0.3323,0.3254,0.3451,0.3449,0.3448,0.3447,0.3447,0.2995,0.2998,0.3064,0.311,0.3201,0.3235,0.3337,0.3456,0.3564,0.3614,0.3352,0.3553,0.3514,0.3499,0.3436,0.3669,0.3669,0.3669,0.3669,0.2973,0.2985,0.3053,0.3114,0.3181,0.3225,0.3248,0.3341,0.3385,0.3342,0.3328,0.3203,0.3203,0.3136,0.3129,0.3055,0.3186,0.3184,0.3184,0.2987,0.3003,0.3044,0.3092,0.3164,0.3183,0.3124,0.3032,0.3082,0.3141,0.3052,0.3073,0.2861,0.2877,0.2745,0.2751,0.262,0,0]},{"header":{"parameterUnit":"m.s-1","parameterCategory":2,"la1":30.2992,"la2":30.254,"lo1":-89.0895,"lo2":-89.0443,"dy":0.0025,"dx":0.0025,"nx":19,"ny":19,"refTime":"2026-03-10T09:00:00:Z","depth":"0","parameterNumber":3,"parameterNumberName":"V-component_of_CURRENTS"},"data":[0,0,0,0.0412,0.0412,0.0421,0.0421,0.0434,0.0435,0,0,0,0,0,0,0,0,0,0,0,0.041,0.041,0.0412,0.0413,0.0421,0.0421,0.0434,0.0435,0,0,0,0,0,0,0,0,0,0,0,0.041,0.041,0.0411,0.0413,0.0421,0.0421,0.0434,0.0424,0,0,0,0,0,0,0,0,0,0,0.0414,0.0408,0.041,0.0411,0.0413,0.0421,0.0421,0.0423,0.0425,0.0436,0,0.0448,0,0.0448,0.0437,0.0437,0,0,0,0.04,0.0407,0.0421,0.0411,0.0413,0.0421,0.0413,0.0424,0.0426,0.0437,0.0448,0.0449,0.0448,0.0437,0.0437,0.0588,0.0589,0,0,0.0399,0.0397,0.042,0.0422,0.043,0.0413,0.0414,0.0425,0.0426,0.0448,0.0449,0.0448,0.0437,0.0437,0.0586,0.0588,0,0,0,0.0407,0.0397,0.041,0.0422,0.0427,0.0414,0.0414,0.0425,0.0433,0.0449,0.0449,0.0437,0.0438,0.0585,0.0587,0.0684,0,0,0,0.0406,0.0402,0.041,0.0407,0.0427,0.0424,0.0414,0.0432,0.0434,0.0448,0.0437,0.0438,0.0583,0.0586,0.0678,0.0701,0,0,0,0.0407,0.0402,0.041,0.0407,0.0418,0.0424,0.0431,0.0432,0.0434,0.0437,0.0438,0.0582,0.0585,0.0673,0.0693,0.0761,0,0,0,0.0393,0.0433,0.041,0.0467,0.0418,0.0495,0.0431,0.0475,0.0488,0.0438,0.0583,0.0587,0.0671,0.0688,0.0756,0.0836,0.0866,0,0,0.0442,0.0439,0.0479,0.046,0.0551,0.0492,0.059,0.057,0.0543,0.0574,0.0577,0.068,0.0692,0.076,0.1029,0.1053,0,0,0,0.0495,0.0524,0.055,0.0594,0.063,0.066,0.0649,0.0659,0.0693,0.0568,0.0721,0.0726,0.0765,0.0804,0.0825,0.0685,0.0602,0.0602,0.0602,0.0541,0.0581,0.066,0.0713,0.0757,0.0791,0.0824,0.0837,0.0799,0.0847,0.0837,0.0995,0.1042,0.1057,0.0914,0.0883,0.0884,0.0884,0.0884,0.0639,0.0695,0.0741,0.0828,0.0867,0.0934,0.0985,0.0976,0.1047,0.0983,0.1017,0.0944,0.1085,0.0924,0.0891,0.089,0.0889,0.0888,0.0888,0.0684,0.0715,0.0767,0.0878,0.0959,0.1003,0.1099,0.1116,0.1124,0.1168,0.1199,0.1197,0.1025,0.1188,0.1189,0.1189,0.1189,0.119,0.119,0.0698,0.0755,0.0826,0.0927,0.0988,0.1071,0.1164,0.1227,0.1304,0.1311,0.1312,0.1086,0.1087,0.1039,0.1197,0.1196,0.1195,0.1194,0.1194,0.0737,0.0759,0.0867,0.0934,0.108,0.1211,0.128,0.1448,0.1498,0.1561,0.1318,0.1393,0.1362,0.1346,0.1306,0.1523,0.1523,0.1523,0.1523,0.0744,0.0769,0.0903,0.1009,0.1144,0.1275,0.1525,0.1677,0.1601,0.151,0.1373,0.1304,0.1296,0.1254,0.124,0.1194,0.1378,0.1377,0.1376,0.0751,0.0803,0.0885,0.1013,0.1174,0.1366,0.1653,0.1899,0.1669,0.1349,0.1164,0.1171,0.104,0.104,0.0946,0.0937,0.0851,0,0]}],[{"header":{"parameterUnit":"m.s-1","parameterCategory":2,"la1":30.2992,"la2":30.254,"lo1":-89.0895,"lo2":-89.0443,"dy":0.0025,"dx":0.0025,"nx":19,"ny":19,"refTime":"2026-03-10T09:00:00:Z","depth":"2","parameterNumber":2,"parameterNumberName":"U-component_of_CURRENTS"},"data":[0,0,0,0.1755,0.1757,0.1802,0.1802,0.1859,0.186,0,0,0,0,0,0,0,0,0,0,0,0.1744,0.1745,0.1755,0.1757,0.1802,0.1802,0.1859,0.186,0,0,0,0,0,0,0,0,0,0,0,0.1744,0.1745,0.1746,0.1757,0.1802,0.1802,0.1859,0.1822,0,0,0,0,0,0,0,0,0,0,0.1778,0.178,0.1744,0.1746,0.1757,0.1802,0.1802,0.1821,0.1825,0.1842,0,0.1863,0,0.1867,0.1865,0.1865,0,0,0,0.1746,0.1776,0.1782,0.1746,0.1758,0.1802,0.1778,0.1823,0.1828,0.1848,0.1864,0.1866,0.1868,0.1865,0.1866,0.2044,0.2046,0,0,0.1743,0.1755,0.1779,0.1786,0.1789,0.1777,0.178,0.1826,0.1843,0.1864,0.1867,0.1869,0.1866,0.1866,0.2043,0.2045,0,0,0,0.1744,0.1754,0.1758,0.1783,0.1794,0.1779,0.1782,0.184,0.1841,0.1868,0.187,0.1866,0.1867,0.2042,0.2044,0.21,0,0,0,0.1742,0.1755,0.1758,0.1766,0.1794,0.1821,0.1796,0.1838,0.1843,0.187,0.1866,0.1868,0.204,0.2043,0.2095,0.211,0,0,0,0.1739,0.1754,0.1763,0.1766,0.1789,0.182,0.1822,0.1838,0.1845,0.1865,0.1868,0.2039,0.2042,0.2091,0.2103,0.2161,0,0,0,0.1742,0.1772,0.1764,0.1815,0.1789,0.1856,0.1822,0.1877,0.1904,0.1867,0.204,0.2043,0.209,0.2099,0.2157,0.2029,0.2038,0,0,0.1776,0.1777,0.1808,0.1802,0.1865,0.1848,0.1935,0.1951,0.1962,0.2019,0.2023,0.2097,0.2103,0.216,0.2223,0.2226,0,0,0,0.1817,0.1823,0.1847,0.1887,0.1935,0.197,0.1994,0.2019,0.209,0.1995,0.215,0.2153,0.2186,0.2102,0.2106,0.2059,0.2059,0.2059,0.2058,0.1827,0.186,0.1903,0.1939,0.2003,0.2073,0.2124,0.2171,0.2165,0.2225,0.2238,0.2374,0.2289,0.2289,0.2289,0.229,0.229,0.229,0.229,0.1826,0.1843,0.1915,0.1957,0.2038,0.2129,0.2239,0.2265,0.2378,0.2341,0.2371,0.2215,0.2295,0.2296,0.2295,0.2294,0.2294,0.2293,0.2293,0.1749,0.178,0.1814,0.1923,0.2034,0.2145,0.2259,0.2355,0.2429,0.2489,0.24,0.2396,0.2374,0.251,0.2511,0.2511,0.2511,0.2512,0.2512,0.169,0.1738,0.1766,0.1887,0.1951,0.208,0.2268,0.2339,0.2425,0.2461,0.2459,0.2448,0.244,0.2389,0.2517,0.2516,0.2516,0.2515,0.2515,0.1647,0.1685,0.1709,0.1747,0.1896,0.1935,0.2136,0.2256,0.2361,0.2367,0.2444,0.2444,0.2409,0.2404,0.2353,0.2466,0.2466,0.2465,0.2465,0.1624,0.1649,0.1689,0.1723,0.1775,0.1867,0.1899,0.1999,0.2161,0.2225,0.2235,0.214,0.2148,0.2093,0.2095,0.2035,0.2065,0.2065,0.2064,0.1639,0.1644,0.165,0.1699,0.1717,0.1768,0.1728,0.1721,0.1853,0.2048,0.216,0.244,0.2324,0.2326,0.2258,0.2256,0.2166,0,0]},{"header":{"parameterUnit":"m.s-1","parameterCategory":2,"la1":30.2992,"la2":30.254,"lo1":-89.0895,"lo2":-89.0443,"dy":0.0025,"dx":0.0025,"nx":19,"ny":19,"refTime":"2026-03-10T09:00:00:Z","depth":"2","parameterNumber":3,"parameterNumberName":"V-component_of_CURRENTS"},"data":[0,0,0,0.011,0.0111,0.0131,0.0131,0.0151,0.0151,0,0,0,0,0,0,0,0,0,0,0,0.0104,0.0104,0.011,0.0111,0.0131,0.0131,0.0151,0.0151,0,0,0,0,0,0,0,0,0,0,0,0.0104,0.0104,0.0104,0.0111,0.0131,0.0131,0.0151,0.0137,0,0,0,0,0,0,0,0,0,0,0.0117,0.0104,0.0104,0.0104,0.0111,0.0131,0.0131,0.0136,0.0137,0.014,0,0.0146,0,0.0149,0.0152,0.0152,0,0,0,0.0109,0.0103,0.0117,0.0104,0.0111,0.0131,0.0122,0.0137,0.0139,0.0142,0.0146,0.0147,0.015,0.0152,0.0152,0.0195,0.0195,0,0,0.0108,0.0098,0.0116,0.0119,0.012,0.0121,0.0122,0.0138,0.0135,0.0146,0.0147,0.015,0.0152,0.0153,0.0195,0.0195,0,0,0,0.0106,0.0097,0.0111,0.0118,0.0122,0.0122,0.0123,0.0135,0.0142,0.0148,0.015,0.0153,0.0153,0.0194,0.0195,0.0257,0,0,0,0.0105,0.0096,0.0111,0.0104,0.0122,0.0127,0.0119,0.0141,0.0143,0.015,0.0153,0.0153,0.0194,0.0195,0.0254,0.0313,0,0,0,0.0102,0.0096,0.0101,0.0103,0.0114,0.0127,0.0135,0.0141,0.0145,0.0152,0.0153,0.0194,0.0195,0.0252,0.0308,0.0359,0,0,0,0.0087,0.011,0.0101,0.0129,0.0114,0.0157,0.0135,0.0157,0.0167,0.0153,0.0194,0.0195,0.0252,0.0305,0.0356,0.0409,0.0428,0,0,0.0113,0.0113,0.0133,0.0126,0.0183,0.0154,0.0204,0.0201,0.0178,0.0187,0.0188,0.0255,0.0307,0.0358,0.0453,0.0471,0,0,0,0.014,0.0158,0.0173,0.02,0.022,0.0253,0.0239,0.0231,0.0239,0.0187,0.0253,0.0285,0.0315,0.034,0.0354,0.0199,0.0198,0.0198,0.0198,0.016,0.0187,0.0235,0.0274,0.03,0.0317,0.0337,0.0324,0.0285,0.0293,0.0333,0.0415,0.044,0.0452,0.0312,0.0312,0.0313,0.0313,0.0313,0.0223,0.0268,0.0292,0.035,0.0383,0.0419,0.0439,0.0419,0.0449,0.039,0.0415,0.0401,0.0472,0.0318,0.0317,0.0316,0.0316,0.0315,0.0315,0.0269,0.0296,0.0317,0.0399,0.0463,0.0497,0.0591,0.0571,0.0529,0.0558,0.0576,0.0575,0.0471,0.0563,0.0563,0.0564,0.0564,0.0565,0.0565,0.0306,0.0332,0.0401,0.0466,0.053,0.0622,0.0691,0.0727,0.0725,0.0676,0.0676,0.0499,0.0491,0.0486,0.0572,0.0571,0.057,0.0569,0.0569,0.0376,0.0388,0.0497,0.0564,0.0714,0.0878,0.0895,0.097,0.0957,0.0956,0.0737,0.073,0.0724,0.0711,0.0711,0.0851,0.0851,0.0851,0.0851,0.0428,0.0439,0.0603,0.0733,0.0901,0.1013,0.121,0.1166,0.1037,0.0918,0.0914,0.0854,0.0842,0.0837,0.0821,0.0821,0.0989,0.0989,0.0989,0.0478,0.0529,0.0661,0.0794,0.1,0.1193,0.138,0.1298,0.1047,0.0991,0.0899,0.0868,0.0766,0.0752,0.0729,0.071,0.0703,0,0]}],[{"header":{"parameterUnit":"m.s-1","parameterCategory":2,"la1":30.2992,"la2":30.254,"lo1":-89.0895,"lo2":-89.0443,"dy":0.0025,"dx":0.0025,"nx":19,"ny":19,"refTime":"2026-03-10T09:00:00:Z","depth":"4","parameterNumber":2,"parameterNumberName":"U-component_of_CURRENTS"},"data":[0,0,0,0.0957,0.0959,0.1088,0.1088,0.1222,0.1223,0,0,0,0,0,0,0,0,0,0,0,0.091,0.0911,0.0956,0.096,0.1088,0.1088,0.1222,0.1223,0,0,0,0,0,0,0,0,0,0,0,0.091,0.0911,0.0912,0.096,0.1088,0.1088,0.1221,0.1131,0,0,0,0,0,0,0,0,0,0,0.101,0.0973,0.0911,0.0912,0.0961,0.1088,0.1088,0.1127,0.1137,0.1156,0,0.1181,0,0.1208,0.1231,0.1232,0,0,0,0.0957,0.0965,0.1001,0.0912,0.0962,0.1087,0.1029,0.1133,0.1144,0.1168,0.1183,0.1189,0.121,0.1232,0.1233,0.1361,0.1361,0,0,0.095,0.0932,0.0994,0.1008,0.1003,0.1025,0.1033,0.114,0.1153,0.1184,0.1192,0.1213,0.1233,0.1234,0.136,0.1361,0,0,0,0.0931,0.0927,0.0961,0.1002,0.103,0.1029,0.1038,0.1148,0.116,0.1194,0.1214,0.1234,0.1235,0.136,0.1361,0.1383,0,0,0,0.0927,0.0917,0.0958,0.0948,0.1028,0.1095,0.1044,0.1153,0.1166,0.1213,0.1234,0.1237,0.1359,0.136,0.1382,0.1387,0,0,0,0.0903,0.0914,0.0931,0.0947,0.1005,0.1094,0.1113,0.1156,0.1178,0.1232,0.1237,0.1359,0.136,0.138,0.1385,0.1424,0,0,0,0.0876,0.0903,0.0931,0.0969,0.1003,0.1084,0.1112,0.1186,0.1234,0.1234,0.136,0.1361,0.138,0.1383,0.1423,0.1249,0,0,0,0.089,0.0904,0.0926,0.0954,0.1021,0.1065,0.1138,0.1217,0.1255,0.1321,0.1324,0.1382,0.1385,0.1424,0.1313,0,0,0,0,0.0916,0.093,0.0957,0.1004,0.1068,0.1135,0.1204,0.1244,0.1333,0.129,0.1398,0.1399,0.1423,0.1317,0.1366,0.1366,0.1366,0.1365,0.1365,0.0883,0.0926,0.0961,0.1023,0.1085,0.1191,0.1252,0.1322,0.135,0.1399,0.1429,0.1489,0.1378,0.1444,0.1445,0.1445,0.1445,0.1445,0.1445,0.0873,0.0879,0.0954,0.1008,0.1096,0.1173,0.131,0.1361,0.1461,0.1461,0.1484,0.1362,0.1448,0.1447,0.1447,0.1446,0.1446,0.1446,0.1446,0.0805,0.0819,0.0866,0.0951,0.1049,0.1177,0.1291,0.1404,0.1488,0.1526,0.1435,0.1514,0.15,0.1553,0.1554,0.1554,0.1554,0.1554,0.1554,0.0716,0.0764,0.0794,0.0894,0.0951,0.1088,0.129,0.1369,0.1484,0.1446,0.1547,0.1526,0.1522,0.1507,0.1558,0.1557,0.1557,0.1556,0.1556,0.0655,0.0664,0.0704,0.0748,0.0873,0.095,0.1169,0.1312,0.1372,0.1386,0.1404,0.1411,0.1389,0.1389,0.1368,0.138,0.1377,0.1375,0,0.0591,0.0604,0.0635,0.0669,0.0729,0.0868,0.096,0.1096,0.1216,0.117,0.134,0.1353,0.1359,0.1326,0.1323,0.1292,0,0,0,0.0566,0.0576,0.0571,0.0599,0.0647,0.0797,0.0979,0.0997,0.1203,0.124,0.1324,0.1338,0.1452,0.1567,0.1551,0.1547,0.1521,0,0]},{"header":{"parameterUnit":"m.s-1","parameterCategory":2,"la1":30.2992,"la2":30.254,"lo1":-89.0895,"lo2":-89.0443,"dy":0.0025,"dx":0.0025,"nx":19,"ny":19,"refTime":"2026-03-10T09:00:00:Z","depth":"4","parameterNumber":3,"parameterNumberName":"V-component_of_CURRENTS"},"data":[0,0,0,0.0127,0.0127,0.0143,0.0143,0.015,0.015,0,0,0,0,0,0,0,0,0,0,0,0.0123,0.0123,0.0127,0.0127,0.0143,0.0143,0.015,0.015,0,0,0,0,0,0,0,0,0,0,0,0.0123,0.0123,0.0123,0.0127,0.0143,0.0143,0.015,0.0142,0,0,0,0,0,0,0,0,0,0,0.0128,0.0121,0.0123,0.0123,0.0127,0.0143,0.0143,0.0142,0.0143,0.0138,0,0.0141,0,0.0144,0.015,0.015,0,0,0,0.0129,0.012,0.0129,0.0123,0.0128,0.0143,0.0137,0.0142,0.0143,0.0139,0.0141,0.0142,0.0144,0.015,0.015,0.0134,0.0134,0,0,0.0129,0.0121,0.0128,0.0129,0.0132,0.0136,0.0137,0.0143,0.0141,0.0141,0.0142,0.0144,0.015,0.015,0.0134,0.0134,0,0,0,0.0125,0.0121,0.0129,0.0129,0.0132,0.0137,0.0138,0.0141,0.0145,0.0142,0.0144,0.015,0.015,0.0134,0.0134,0.0174,0,0,0,0.0124,0.0118,0.0129,0.0124,0.0132,0.0137,0.0135,0.0145,0.0145,0.0144,0.015,0.015,0.0134,0.0134,0.0174,0.0223,0,0,0,0.0122,0.0118,0.0121,0.0124,0.013,0.0137,0.0142,0.0145,0.0146,0.015,0.015,0.0135,0.0134,0.0173,0.0221,0.0247,0,0,0,0.0113,0.0125,0.0121,0.0132,0.013,0.0146,0.0142,0.015,0.0154,0.015,0.0134,0.0134,0.0173,0.0219,0.0245,0.0279,0,0,0,0.0127,0.0126,0.0134,0.0131,0.0157,0.0144,0.016,0.0162,0.0144,0.0132,0.0132,0.0174,0.022,0.0246,0.0253,0,0,0,0,0.0137,0.0149,0.0154,0.0166,0.0169,0.0189,0.0176,0.0163,0.0155,0.0144,0.0154,0.0182,0.0197,0.0211,0.0132,0.0132,0.0132,0.0132,0.0132,0.016,0.0167,0.0195,0.021,0.0214,0.0213,0.0219,0.0198,0.0168,0.016,0.0199,0.0229,0.0241,0.0163,0.0163,0.0163,0.0163,0.0164,0.0164,0.0208,0.0236,0.0241,0.0273,0.0282,0.0293,0.0274,0.0254,0.0248,0.0211,0.0222,0.0232,0.0167,0.0166,0.0166,0.0166,0.0165,0.0165,0.0165,0.0247,0.0264,0.028,0.0329,0.0369,0.0367,0.041,0.0372,0.0311,0.0322,0.0329,0.0265,0.0282,0.0321,0.0322,0.0322,0.0322,0.0322,0.0323,0.0282,0.0301,0.0353,0.0399,0.0447,0.05,0.05,0.0493,0.0431,0.0402,0.0344,0.0283,0.0277,0.029,0.0328,0.0327,0.0326,0.0326,0.0325,0.0333,0.0343,0.0425,0.048,0.0591,0.0629,0.0627,0.0585,0.0577,0.0542,0.0432,0.0426,0.0423,0.0415,0.0432,0.0513,0.0514,0.0514,0,0.0368,0.0378,0.0494,0.0596,0.0694,0.0714,0.0724,0.0693,0.0597,0.0588,0.057,0.0449,0.0442,0.0439,0.0433,0.0454,0,0,0,0.0402,0.0437,0.0528,0.0629,0.0742,0.0749,0.0728,0.0702,0.0614,0.0599,0.053,0.0526,0.0437,0.0342,0.0322,0.0316,0.0336,0,0]}]]